Weather History for KTDZ - January, 2013

Change the Weather History Date:

Wednesday, January 16, 2013

  Actual Average (KTOL) Record (KTOL)
Temperature  
Mean Temperature 29 °F 25 °F  
Max Temperature 35 °F 32 °F 58 °F (1889)
Min Temperature 23 °F 18 °F -17 °F (1972)
Degree Days  
Heating Degree Days 36 40  
Month to date heating degree days 631  
Since 1 July heating degree days 2956  
Cooling Degree Days 0 0  
Month to date cooling degree days 0  
Year to date cooling degree days 0  
Moisture  
Dew Point 23 °F    
Average Humidity 73    
Maximum Humidity 88    
Minimum Humidity 57    
Precipitation  
Precipitation 0.00 in 0.07 in - ()
Month to date precipitation 1.14  
Year to date precipitation 1.14  
Snow  
Snow 0.00 in 0.40 in - ()
Month to date snowfall 5.7  
Since 1 July snowfall 15.2  
Snow Depth -    
Sea Level Pressure  
Sea Level Pressure 29.99 in    
Wind  
Wind Speed 7 mph (WSW)    
Max Wind Speed 17 mph    
Max Gust Speed 25 mph    
Visibility 9 miles    
Events      
T = Trace of Precipitation, MM = Missing Value Source: NWS Daily Summary

Daily Weather History Graph

Daily Weather History Graph

Search for Another Location

Airport or City:

Trip Planner

Search our weather history database for the weather conditions in past years. The results will help you decide how hot, cold, wet, or windy it might be!

Date:

Astronomy

Jan. 16, 2013 Rise Set
Actual Time 7:57 AM EST 5:30 PM EST
Civil Twilight 7:27 AM EST 6:00 PM EST
Nautical Twilight 6:52 AM EST 6:35 PM EST
Astronomical Twilight 6:19 AM EST 7:08 PM EST
Moon 10:28 AM EST (1/16) 11:26 PM EST (1/16)
Length of Visible Light 10h 33m
Length of Day
9h 32m
Waxing Crescent, 28% of the Moon is Illuminated
Jan 16
Waxing Crescent
Jan 18
First Quarter
Jan 26
Full
Feb 3
Last Quarter
Feb 10
New

Hourly Weather History & Observations

Time (EST) Temp. Windchill Dew Point Humidity Pressure Visibility Wind Dir Wind Speed Gust Speed Precip Events Conditions
1:53 AM 27.0 °F 23.0 °F 21.0 °F 78% 30.10 in 10.0 mi NE 3.5 mph - N/A   Clear
2:53 AM 27.0 °F - 21.0 °F 78% 30.09 in 10.0 mi Calm Calm - N/A   Clear
3:53 AM 27.0 °F - 21.0 °F 78% 30.08 in 10.0 mi Calm Calm - N/A   Clear
4:53 AM 26.1 °F 21.9 °F 21.9 °F 84% 30.06 in 10.0 mi NNW 3.5 mph - N/A   Clear
5:53 AM 26.1 °F - 23.0 °F 88% 30.02 in 9.0 mi Calm Calm - N/A   Overcast
6:53 AM 26.1 °F - 21.9 °F 84% 30.02 in 8.0 mi Calm Calm - N/A   Overcast
7:53 AM 23.0 °F 18.4 °F 19.9 °F 88% 30.01 in 5.0 mi West 3.5 mph - N/A   Partly Cloudy
8:53 AM 25.0 °F - 21.0 °F 85% 30.00 in 5.0 mi Calm Calm - N/A   Mostly Cloudy
9:53 AM 27.0 °F 20.5 °F 23.0 °F 85% 29.99 in 6.0 mi SW 5.8 mph - N/A   Clear
10:53 AM 30.9 °F 21.7 °F 24.1 °F 76% 29.99 in 10.0 mi SW 11.5 mph - N/A   Clear
11:53 AM 33.1 °F 23.0 °F 24.1 °F 70% 29.97 in 10.0 mi West 15.0 mph - N/A   Clear
12:53 PM 34.0 °F 24.2 °F 21.9 °F 61% 29.93 in 10.0 mi SW 15.0 mph - N/A   Clear
1:53 PM 35.1 °F 26.9 °F 21.0 °F 57% 29.90 in 10.0 mi SW 11.5 mph 21.9 mph N/A   Clear
3:53 PM 35.1 °F 24.8 °F 23.0 °F 61% 29.90 in 10.0 mi SW 17.3 mph - N/A   Clear
4:53 PM 34.0 °F 24.2 °F 23.0 °F 64% 29.91 in 10.0 mi SW 15.0 mph - N/A   Clear
5:53 PM 33.1 °F 23.4 °F 23.0 °F 66% 29.93 in 10.0 mi SW 13.8 mph 23.0 mph N/A   Clear
6:53 PM 32.0 °F 22.1 °F 24.1 °F 73% 29.95 in 10.0 mi SW 13.8 mph - N/A   Clear
7:53 PM 33.1 °F 22.6 °F 23.0 °F 66% 29.95 in 10.0 mi SW 16.1 mph 23.0 mph N/A   Overcast
8:53 PM 33.1 °F 22.6 °F 24.1 °F 70% 29.96 in 10.0 mi WSW 16.1 mph - N/A   Overcast
9:53 PM 34.0 °F 23.8 °F 23.0 °F 64% 29.99 in 10.0 mi West 16.1 mph 25.3 mph N/A   Overcast
10:53 PM 34.0 °F 24.6 °F 24.1 °F 67% 29.99 in 10.0 mi WSW 13.8 mph - N/A   Overcast
11:06 PM 33.8 °F 24.8 °F 24.8 °F 70% 29.98 in 10.0 mi WSW 12.7 mph - N/A   Overcast
11:53 PM 34.0 °F 25.0 °F 25.0 °F 70% 30.01 in 10.0 mi WSW 12.7 mph - N/A   Overcast